Other Public Products
Issued by NWS Charleston, SC

Home | Current Version | Previous Version | Text Only | Print | Product List | Glossary On
Versions: 1 2 3 4 5 6 7 8 9 10 11 12 13 14 15 16 17 18 19 20 21 22 23 24 25 26 27 28 29 30 31 32 33 34 35 36 37 38 39 40 41 42 43 44 45 46 47 48 49 50
553
FPUS82 KCHS 230027
OPUCHS

TEST...KCHS/KSAV Gateway Observations...TEST
National Weather Service Charleston SC
700 PM EST WED NOV 22 2017

NOTE: "fair" indicates few or no clouds below 12,000 feet with no
significant weather and/or obstructions to visibility.

SCZ050-WAZ558-NCZ071-TXZ119-213-PAZ071-DCZ001-FLZ074-172-MI076-
NYZ176-178-MAZ016-IL014-TNZ027-NJZ106-GAZ044-MD014-230100-

...Gateway Observations for Charleston International...

CITY           SKY/WX    TMP DP  RH WIND       PRES   REMARKS
Chas Airport   MOCLDY    58  56  93 CALM      30.04R
6HR MIN TEMP:  58; 6HR MAX TEMP:  69;

Seattle        MOCLDY    66  56  70 S14G23    29.92S
6HR MIN TEMP:  60; 6HR MAX TEMP:  68; 6HR PCP:  0.03;

Charlotte      PTCLDY    53  31  42 VRB7      30.08R
6HR MIN TEMP:  51; 6HR MAX TEMP:  65;

Dallas DFW     PTCLDY    51  21  30 N8        30.27S
6HR MIN TEMP:  50; 6HR MAX TEMP:  56;

Dallas Love    PTCLDY    50  22  33 N6        30.28F
6HR MIN TEMP:  49; 6HR MAX TEMP:  56;

Philladelphia  PTCLDY    44  24  45 NW16G25   30.08R
6HR MIN TEMP:  44; 6HR MAX TEMP:  56;

Wash National  PTCLDY    44  25  47 NW13      30.15R
6HR MIN TEMP:  44; 6HR MAX TEMP:  55;

Baltimore      PTCLDY    41  26  55 NW8       30.12R
6HR MIN TEMP:  41; 6HR MAX TEMP:  53;

Miami          PTCLDY    79  69  71 E9        29.94R
6HR MIN TEMP:  74; 6HR MAX TEMP:  85;

Detroit        MOCLDY    30  17  58 N3        30.27F
6HR MIN TEMP:  30; 6HR MAX TEMP:  38;

Newark         MOCLDY    42  25  50 N24G33    30.04R
6HR MIN TEMP:  42; 6HR MAX TEMP:  54;

Laguardia      CLOUDY    43  28  55 NW18G29   30.01R
6HR MIN TEMP:  43; 6HR MAX TEMP:  53;

J F K          MOCLDY    42  27  55 NW17G31   30.01R
6HR MIN TEMP:  42; 6HR MAX TEMP:  54;

Boston Logan   PTCLDY    42  34  73 NW21G30   29.85R
6HR MIN TEMP:  42; 6HR MAX TEMP:  51; 6HR PCP:  0.31;

Ft. Lauderdale PTCLDY    76  69  79 E5        29.93R
6HR MIN TEMP:  76; 6HR MAX TEMP:  82;

Chicago O`Hare CLOUDY    32  17  54 W3        30.25R
6HR MIN TEMP:  31; 6HR MAX TEMP:  35;

Chicago Midway MOCLDY    32  17  54 SW7       30.26R WCI  26
6HR MIN TEMP:  32; 6HR MAX TEMP:  35;

Houston Bush   PTCLDY    60  42  51 N9        30.22R
6HR MIN TEMP:  59; 6HR MAX TEMP:  70;

Houston Hobby  PTCLDY    62  45  53 NW13      30.20R
6HR MIN TEMP:  62; 6HR MAX TEMP:  69;

Nashville      CLEAR     42  23  46 N8        30.25R
6HR MIN TEMP:  41; 6HR MAX TEMP:  49;

Atlanta        MOCLDY    53  36  52 NW9       30.07R
6HR MIN TEMP:  53; 6HR MAX TEMP:  63;


$$

GAZ044-118-TXZ119-213-NCZ071-DCZ001-MDZ014-506-PAZ021-071-NJZ106-
NYZ176-178-MAZ106-OHZ011-021-055-MIZ076-KYZ091-ILZ014-INZ047-
MNZ060-ONZ431-230100-

...Gateway Observations for Savannah International...

CITY           SKY/WX    TMP DP  RH WIND       PRES   REMARKS
Savannah Arpt  MOCLDY    59  57  93 W3        30.03S
6HR MIN TEMP:  59; 6HR MAX TEMP:  69;

Atlanta        MOCLDY    53  36  52 NW9       30.07R
6HR MIN TEMP:  53; 6HR MAX TEMP:  63;

Charlotte      PTCLDY    53  31  42 VRB7      30.08R
6HR MIN TEMP:  51; 6HR MAX TEMP:  65;

Dallas DFW     PTCLDY    51  21  30 N8        30.27S
6HR MIN TEMP:  50; 6HR MAX TEMP:  56;

Houston Bush   PTCLDY    60  42  51 N9        30.22R
6HR MIN TEMP:  59; 6HR MAX TEMP:  70;

Wash National  PTCLDY    44  25  47 NW13      30.15R
6HR MIN TEMP:  44; 6HR MAX TEMP:  55;

Wash Dulles    PTCLDY    40  25  55 NW10      30.15R WCI  33
6HR MIN TEMP:  40; 6HR MAX TEMP:  53;

Baltimore      PTCLDY    41  26  55 NW8       30.12R
6HR MIN TEMP:  41; 6HR MAX TEMP:  53;

Philadelphia   PTCLDY    44  24  45 NW16G25   30.08R
6HR MIN TEMP:  44; 6HR MAX TEMP:  56;

Newark         MOCLDY    42  25  50 N24G33    30.04R
6HR MIN TEMP:  42; 6HR MAX TEMP:  54;

Laguardia      CLOUDY    43  28  55 NW18G29   30.01R
6HR MIN TEMP:  43; 6HR MAX TEMP:  53;

J F K          MOCLDY    42  27  55 NW17G31   30.01R
6HR MIN TEMP:  42; 6HR MAX TEMP:  54;

Boston         PTCLDY    42  34  73 NW21G30   29.85R
6HR MIN TEMP:  42; 6HR MAX TEMP:  51; 6HR PCP:  0.31;

Pittsburg      CLOUDY    32  22  66 N10       30.24R WCI  24
6HR MIN TEMP:  32; 6HR MAX TEMP:  34; 6HR PCP: TRACE;

Akron          CLOUDY    31  18  58 NW7       30.26R WCI  24
6HR MIN TEMP:  31; 6HR MAX TEMP:  34;

Cleveland      CLOUDY    32  20  61 SW5       30.30S WCI  27
6HR MIN TEMP:  32; 6HR MAX TEMP:  34;

Cincinnati     CLEAR     32  25  75 E7        30.26S WCI  26
6HR MIN TEMP:  31; 6HR MAX TEMP:  40;

Columbus       CLOUDY    29  23  76 NE7       30.28S WCI  22
Detroit        MOCLDY    30  17  58 N3        30.27F
6HR MIN TEMP:  30; 6HR MAX TEMP:  38;

Chicago O`Hare CLOUDY    32  17  54 W3        30.25R
6HR MIN TEMP:  31; 6HR MAX TEMP:  35;

Minneapolis    CLOUDY    30  15  53 S6        30.06F WCI  24
6HR MIN TEMP:  23; 6HR MAX TEMP:  30;

Indianapolis   PTCLDY    31  22  69 NW3       30.27F
6HR MIN TEMP:  31; 6HR MAX TEMP:  39;

Toronto Canada MOCLDY    27  14  59 W5        30.21F WCI  21

$$




USA.gov is the U.S. government's official web portal to all federal, state and local government web resources and services.